Time,TemperatureF,DewpointF,PressureIn,WindDirection,WindDirectionDegrees,WindSpeedMPH,WindSpeedGustMPH,Humidity,HourlyPrecipIn,Conditions,Clouds,dailyrainin,SoftwareType,DateUTC
2013-03-09 00:00:00,35.3,31.0,30.09,SSE,148,5.0,12.0,84,0.00,,---,0.00,VWS V14.00,2013-03-09 06:00:00,
2013-03-09 00:05:00,35.3,31.0,30.09,SSE,150,1.0,12.0,84,0.00,,---,0.00,VWS V14.00,2013-03-09 06:05:00,
2013-03-09 00:10:00,35.3,30.7,30.08,South,169,5.0,12.0,83,0.00,,---,0.00,VWS V14.00,2013-03-09 06:10:00,
2013-03-09 00:15:00,35.3,30.7,30.08,SSE,155,3.0,13.0,83,0.00,,---,0.00,VWS V14.00,2013-03-09 06:15:00,
2013-03-09 00:20:00,35.3,31.0,30.08,SSE,153,4.0,13.0,84,0.00,,---,0.00,VWS V14.00,2013-03-09 06:20:00,
2013-03-09 00:25:00,35.2,30.9,30.08,SE,137,3.0,13.0,84,0.00,,---,0.00,VWS V14.00,2013-03-09 06:25:00,
2013-03-09 00:30:00,35.1,31.0,30.07,SSE,167,4.0,15.0,85,0.00,,---,0.00,VWS V14.00,2013-03-09 06:30:00,
2013-03-09 00:35:00,34.9,31.1,30.07,SE,139,7.0,15.0,86,0.00,,---,0.00,VWS V14.00,2013-03-09 06:35:00,
2013-03-09 00:40:00,34.6,31.1,30.06,SE,144,5.0,15.0,87,0.00,,---,0.00,VWS V14.00,2013-03-09 06:40:00,
2013-03-09 00:45:00,34.5,31.3,30.06,ESE,121,5.0,15.0,88,0.00,,---,0.00,VWS V14.00,2013-03-09 06:45:00,
2013-03-09 00:50:00,34.4,31.2,30.06,SE,137,6.0,15.0,88,0.00,,---,0.00,VWS V14.00,2013-03-09 06:50:00,
2013-03-09 00:55:00,34.3,31.4,30.05,ESE,121,3.0,15.0,89,0.00,,---,0.00,VWS V14.00,2013-03-09 06:55:00,
2013-03-09 01:00:00,34.2,31.3,30.05,ESE,105,4.0,9.0,89,0.00,,---,0.00,VWS V14.00,2013-03-09 07:00:00,
2013-03-09 01:05:00,34.1,31.5,30.05,ESE,123,3.0,12.0,90,0.00,,---,0.00,VWS V14.00,2013-03-09 07:05:00,
2013-03-09 01:10:00,34.1,31.5,30.04,SE,139,5.0,12.0,90,0.00,,---,0.00,VWS V14.00,2013-03-09 07:10:00,
2013-03-09 01:15:00,34.0,31.6,30.04,SE,136,2.0,12.0,91,0.00,,---,0.00,VWS V14.00,2013-03-09 07:15:00,
2013-03-09 01:20:00,34.0,31.6,30.04,SE,133,4.0,12.0,91,0.00,,---,0.00,VWS V14.00,2013-03-09 07:20:00,
2013-03-09 01:25:00,33.9,31.6,30.04,SE,136,4.0,12.0,91,0.00,,---,0.00,VWS V14.00,2013-03-09 07:25:00,
2013-03-09 01:30:00,33.9,31.8,30.04,ESE,112,4.0,9.0,92,0.00,,---,0.00,VWS V14.00,2013-03-09 07:30:00,
2013-03-09 01:35:00,33.9,31.8,30.04,SE,132,0.0,10.0,92,0.00,,---,0.00,VWS V14.00,2013-03-09 07:35:00,
2013-03-09 01:40:00,33.9,31.8,30.04,South,176,6.0,13.0,92,0.00,,---,0.00,VWS V14.00,2013-03-09 07:40:00,
2013-03-09 01:45:00,33.9,32.1,30.03,SE,138,7.0,13.0,93,0.00,,---,0.00,VWS V14.00,2013-03-09 07:45:00,
2013-03-09 01:50:00,33.9,32.1,30.03,SE,144,5.0,13.0,93,0.00,,---,0.00,VWS V14.00,2013-03-09 07:50:00,
2013-03-09 01:55:00,33.9,32.1,30.03,SE,124,0.0,13.0,93,0.00,,---,0.00,VWS V14.00,2013-03-09 07:55:00,
2013-03-09 02:00:00,33.9,32.1,30.02,SE,131,2.0,9.0,93,0.00,,---,0.00,VWS V14.00,2013-03-09 08:00:00,
2013-03-09 02:05:00,33.9,32.1,30.02,SSE,151,6.0,9.0,93,0.00,,---,0.00,VWS V14.00,2013-03-09 08:05:00,
2013-03-09 02:10:00,33.9,32.1,30.01,SE,132,0.0,9.0,93,0.00,,---,0.00,VWS V14.00,2013-03-09 08:10:00,
2013-03-09 02:15:00,33.8,32.0,30.01,SE,126,1.0,9.0,93,0.00,,---,0.00,VWS V14.00,2013-03-09 08:15:00,
2013-03-09 02:20:00,33.8,32.3,30.01,SE,132,2.0,9.0,94,0.00,,---,0.00,VWS V14.00,2013-03-09 08:20:00,
2013-03-09 02:25:00,33.8,32.3,30.01,East,101,2.0,9.0,94,0.00,,---,0.00,VWS V14.00,2013-03-09 08:25:00,
2013-03-09 02:30:00,33.8,32.3,30.00,SE,133,6.0,7.0,94,0.00,,---,0.00,VWS V14.00,2013-03-09 08:30:00,
2013-03-09 02:35:00,33.8,32.3,30.00,ESE,122,3.0,8.0,94,0.00,,---,0.00,VWS V14.00,2013-03-09 08:35:00,
2013-03-09 02:40:00,33.8,32.3,29.99,SE,128,5.0,11.0,94,0.00,,---,0.00,VWS V14.00,2013-03-09 08:40:00,
2013-03-09 02:45:00,33.9,32.4,29.99,SE,132,0.0,12.0,94,0.00,,---,0.00,VWS V14.00,2013-03-09 08:45:00,
2013-03-09 02:50:00,33.9,32.4,29.99,SSE,147,3.0,12.0,94,0.00,,---,0.00,VWS V14.00,2013-03-09 08:50:00,
2013-03-09 02:55:00,33.9,32.4,29.98,SE,138,4.0,12.0,94,0.00,,---,0.00,VWS V14.00,2013-03-09 08:55:00,
2013-03-09 03:00:00,33.9,32.4,29.98,SE,129,0.0,4.0,94,0.00,,---,0.00,VWS V14.00,2013-03-09 09:00:00,
2013-03-09 03:05:00,33.9,32.6,29.98,ESE,121,3.0,7.0,95,0.00,,---,0.00,VWS V14.00,2013-03-09 09:05:00,
2013-03-09 03:10:00,34.0,32.7,29.97,SE,134,0.0,7.0,95,0.00,,---,0.00,VWS V14.00,2013-03-09 09:10:00,
2013-03-09 03:15:00,34.0,32.7,29.97,SE,134,6.0,9.0,95,0.00,,---,0.00,VWS V14.00,2013-03-09 09:15:00,
2013-03-09 03:20:00,34.0,32.7,29.97,SE,140,0.0,9.0,95,0.00,,---,0.00,VWS V14.00,2013-03-09 09:20:00,
2013-03-09 03:25:00,34.1,32.8,29.97,SE,139,4.0,9.0,95,0.00,,---,0.00,VWS V14.00,2013-03-09 09:25:00,
2013-03-09 03:30:00,34.1,32.8,29.96,SE,144,3.0,8.0,95,0.00,,---,0.00,VWS V14.00,2013-03-09 09:30:00,
2013-03-09 03:35:00,34.2,32.9,29.96,SE,133,3.0,11.0,95,0.00,,---,0.00,VWS V14.00,2013-03-09 09:35:00,
2013-03-09 03:40:00,34.2,32.9,29.95,SE,141,0.0,11.0,95,0.00,,---,0.00,VWS V14.00,2013-03-09 09:40:00,
2013-03-09 03:45:00,34.2,32.9,29.95,SE,143,0.0,11.0,95,0.00,,---,0.00,VWS V14.00,2013-03-09 09:45:00,
2013-03-09 03:50:00,34.2,32.9,29.95,SE,143,4.0,11.0,95,0.00,,---,0.00,VWS V14.00,2013-03-09 09:50:00,
2013-03-09 03:55:00,34.3,33.0,29.95,ESE,114,4.0,12.0,95,0.00,,---,0.00,VWS V14.00,2013-03-09 09:55:00,
2013-03-09 04:00:00,34.3,33.0,29.95,SE,142,2.0,7.0,95,0.00,,---,0.00,VWS V14.00,2013-03-09 10:00:00,
2013-03-09 04:05:00,34.3,33.0,29.95,SE,126,3.0,7.0,95,0.00,,---,0.00,VWS V14.00,2013-03-09 10:05:00,
2013-03-09 04:10:00,34.3,33.0,29.94,SE,143,3.0,7.0,95,0.00,,---,0.00,VWS V14.00,2013-03-09 10:10:00,
2013-03-09 04:15:00,34.4,33.1,29.94,SSE,147,2.0,10.0,95,0.00,,---,0.00,VWS V14.00,2013-03-09 10:15:00,
2013-03-09 04:20:00,34.4,33.1,29.94,SSE,148,3.0,10.0,95,0.00,,---,0.00,VWS V14.00,2013-03-09 10:20:00,
2013-03-09 04:25:00,34.5,33.2,29.94,SSE,164,5.0,10.0,95,0.00,,---,0.00,VWS V14.00,2013-03-09 10:25:00,
2013-03-09 04:30:00,34.5,33.2,29.94,SE,142,9.0,9.0,95,0.00,,---,0.00,VWS V14.00,2013-03-09 10:30:00,
2013-03-09 04:35:00,34.5,33.2,29.93,SE,138,2.0,9.0,95,0.00,,---,0.00,VWS V14.00,2013-03-09 10:35:00,
2013-03-09 04:40:00,34.5,33.2,29.93,SE,138,0.0,9.0,95,0.00,,---,0.00,VWS V14.00,2013-03-09 10:40:00,
2013-03-09 04:45:00,34.5,33.2,29.93,SE,132,3.0,9.0,95,0.00,,---,0.00,VWS V14.00,2013-03-09 10:45:00,
2013-03-09 04:50:00,34.6,33.6,29.93,SE,143,0.0,9.0,96,0.00,,---,0.00,VWS V14.00,2013-03-09 10:50:00,
2013-03-09 04:55:00,34.6,33.6,29.93,SE,145,0.0,10.0,96,0.00,,---,0.00,VWS V14.00,2013-03-09 10:55:00,
2013-03-09 05:00:00,34.7,33.7,29.93,SSE,153,5.0,7.0,96,0.00,,---,0.00,VWS V14.00,2013-03-09 11:00:00,
2013-03-09 05:05:00,34.7,33.7,29.92,SE,146,2.0,7.0,96,0.00,,---,0.00,VWS V14.00,2013-03-09 11:05:00,
2013-03-09 05:10:00,34.8,33.8,29.92,SE,142,4.0,11.0,96,0.00,,---,0.00,VWS V14.00,2013-03-09 11:10:00,
2013-03-09 05:15:00,34.9,33.9,29.92,SE,142,4.0,11.0,96,0.00,,---,0.00,VWS V14.00,2013-03-09 11:15:00,
2013-03-09 05:20:00,34.9,33.9,29.92,SSE,155,9.0,11.0,96,0.00,,---,0.00,VWS V14.00,2013-03-09 11:20:00,
2013-03-09 05:25:00,35.0,34.0,29.92,SSE,157,4.0,11.0,96,0.00,,---,0.00,VWS V14.00,2013-03-09 11:25:00,
2013-03-09 05:30:00,35.0,34.0,29.92,SSE,161,3.0,6.0,96,0.00,,---,0.00,VWS V14.00,2013-03-09 11:30:00,
2013-03-09 05:35:00,35.0,34.0,29.92,SSE,157,5.0,9.0,96,0.00,,---,0.00,VWS V14.00,2013-03-09 11:35:00,
2013-03-09 05:40:00,35.0,34.0,29.91,SSE,165,6.0,9.0,96,0.00,,---,0.00,VWS V14.00,2013-03-09 11:40:00,
2013-03-09 05:45:00,35.1,34.1,29.92,SSE,152,2.0,9.0,96,0.00,,---,0.00,VWS V14.00,2013-03-09 11:45:00,
2013-03-09 05:50:00,35.1,34.1,29.92,SSE,149,7.0,12.0,96,0.00,,---,0.00,VWS V14.00,2013-03-09 11:50:00,
2013-03-09 05:55:00,35.1,34.1,29.92,SSE,148,7.0,12.0,96,0.00,,---,0.00,VWS V14.00,2013-03-09 11:55:00,
2013-03-09 06:00:00,35.1,34.1,29.92,SSE,157,4.0,7.0,96,0.00,,---,0.00,VWS V14.00,2013-03-09 12:00:00,
2013-03-09 06:05:00,35.1,34.1,29.92,SE,143,4.0,7.0,96,0.00,,---,0.00,VWS V14.00,2013-03-09 12:05:00,
2013-03-09 06:10:00,35.1,34.1,29.91,SSE,147,5.0,11.0,96,0.00,,---,0.00,VWS V14.00,2013-03-09 12:10:00,
2013-03-09 06:15:00,35.1,34.1,29.90,South,184,5.0,11.0,96,0.00,,---,0.00,VWS V14.00,2013-03-09 12:15:00,
2013-03-09 06:20:00,35.1,34.1,29.90,SSE,164,4.0,11.0,96,0.00,,---,0.00,VWS V14.00,2013-03-09 12:20:00,
2013-03-09 06:25:00,35.1,34.1,29.90,SE,144,2.0,11.0,96,0.00,,---,0.00,VWS V14.00,2013-03-09 12:25:00,
2013-03-09 06:30:00,35.1,34.1,29.90,SSE,153,1.0,7.0,96,0.00,,---,0.00,VWS V14.00,2013-03-09 12:30:00,
2013-03-09 06:35:00,35.1,34.1,29.89,SSE,151,5.0,9.0,96,0.00,,---,0.00,VWS V14.00,2013-03-09 12:35:00,
2013-03-09 06:40:00,35.2,34.2,29.89,SE,137,6.0,10.0,96,0.00,,---,0.00,VWS V14.00,2013-03-09 12:40:00,
2013-03-09 06:45:00,35.2,34.2,29.89,SE,146,3.0,11.0,96,0.00,,---,0.00,VWS V14.00,2013-03-09 12:45:00,
2013-03-09 06:50:00,35.2,34.2,29.88,SSE,154,5.0,11.0,96,0.00,,---,0.00,VWS V14.00,2013-03-09 12:50:00,
2013-03-09 06:55:00,35.2,34.2,29.88,SSE,149,3.0,11.0,96,0.00,,---,0.00,VWS V14.00,2013-03-09 12:55:00,
2013-03-09 07:00:00,35.3,34.3,29.88,SE,124,4.0,10.0,96,0.00,,---,0.00,VWS V14.00,2013-03-09 13:00:00,
2013-03-09 07:05:00,35.3,34.3,29.88,SE,142,5.0,10.0,96,0.00,,---,0.00,VWS V14.00,2013-03-09 13:05:00,
2013-03-09 07:10:00,35.3,34.3,29.87,SSE,147,4.0,12.0,96,0.00,,---,0.01,VWS V14.00,2013-03-09 13:10:00,
2013-03-09 07:15:00,35.3,34.3,29.88,SE,141,9.0,12.0,96,0.00,,---,0.01,VWS V14.00,2013-03-09 13:15:00,
2013-03-09 07:20:00,35.3,34.3,29.87,SE,136,9.0,12.0,96,0.00,,---,0.01,VWS V14.00,2013-03-09 13:20:00,
2013-03-09 07:25:00,35.4,34.4,29.86,SSE,163,5.0,12.0,96,0.00,,---,0.01,VWS V14.00,2013-03-09 13:25:00,
2013-03-09 07:30:00,35.4,34.4,29.86,SSE,157,3.0,9.0,96,0.00,,---,0.01,VWS V14.00,2013-03-09 13:30:00,
2013-03-09 07:35:00,35.4,34.4,29.86,SE,135,10.0,12.0,96,0.40,,---,0.03,VWS V14.00,2013-03-09 13:35:00,
2013-03-09 07:40:00,35.4,34.4,29.86,SSE,147,4.0,12.0,96,0.35,,---,0.05,VWS V14.00,2013-03-09 13:40:00,
2013-03-09 07:45:00,35.4,34.4,29.86,SSE,163,5.0,12.0,96,0.34,,---,0.07,VWS V14.00,2013-03-09 13:45:00,
2013-03-09 07:50:00,35.5,34.5,29.86,SSE,150,6.0,12.0,96,0.35,,---,0.09,VWS V14.00,2013-03-09 13:50:00,
2013-03-09 07:55:00,35.5,34.5,29.86,SSE,159,9.0,14.0,96,0.28,,---,0.11,VWS V14.00,2013-03-09 13:55:00,
2013-03-09 08:00:00,35.5,34.5,29.85,SE,133,5.0,10.0,96,0.16,,---,0.12,VWS V14.00,2013-03-09 14:00:00,
2013-03-09 08:05:00,35.5,34.5,29.85,South,171,7.0,11.0,96,0.15,,---,0.14,VWS V14.00,2013-03-09 14:05:00,
2013-03-09 08:10:00,35.6,34.6,29.85,SSE,165,4.0,11.0,96,0.25,,---,0.15,VWS V14.00,2013-03-09 14:10:00,
2013-03-09 08:15:00,35.6,34.6,29.85,SSE,167,7.0,11.0,96,0.28,,---,0.17,VWS V14.00,2013-03-09 14:15:00,
2013-03-09 08:20:00,35.6,34.6,29.85,South,170,9.0,12.0,96,0.14,,---,0.18,VWS V14.00,2013-03-09 14:20:00,
2013-03-09 08:25:00,35.6,34.6,29.85,SSW,203,6.0,12.0,96,0.14,,---,0.19,VWS V14.00,2013-03-09 14:25:00,
2013-03-09 08:30:00,35.6,34.6,29.84,SSE,161,11.0,12.0,96,0.23,,---,0.21,VWS V14.00,2013-03-09 14:30:00,
2013-03-09 08:35:00,35.6,34.6,29.84,SSE,154,5.0,12.0,96,0.12,,---,0.22,VWS V14.00,2013-03-09 14:35:00,
2013-03-09 08:40:00,35.5,34.5,29.83,SE,137,4.0,12.0,96,0.12,,---,0.23,VWS V14.00,2013-03-09 14:40:00,
2013-03-09 08:45:00,35.5,34.5,29.83,South,173,6.0,12.0,96,0.21,,---,0.25,VWS V14.00,2013-03-09 14:45:00,
2013-03-09 08:50:00,35.5,34.5,29.83,SSE,155,3.0,12.0,96,0.10,,---,0.26,VWS V14.00,2013-03-09 14:50:00,
2013-03-09 08:55:00,35.5,34.5,29.83,SSE,155,2.0,12.0,96,0.19,,---,0.27,VWS V14.00,2013-03-09 14:55:00,
2013-03-09 09:00:00,35.5,34.5,29.83,SSE,161,2.0,9.0,96,0.09,,---,0.28,VWS V14.00,2013-03-09 15:00:00,
2013-03-09 09:05:00,35.5,34.5,29.83,SSE,150,4.0,10.0,96,0.14,,---,0.29,VWS V14.00,2013-03-09 15:05:00,
2013-03-09 09:10:00,35.6,34.6,29.82,SE,138,6.0,12.0,96,0.08,,---,0.30,VWS V14.00,2013-03-09 15:10:00,
2013-03-09 09:15:00,35.6,34.6,29.82,SE,138,3.0,12.0,96,0.13,,---,0.31,VWS V14.00,2013-03-09 15:15:00,
2013-03-09 09:20:00,35.7,34.7,29.82,SE,131,9.0,12.0,96,0.11,,---,0.31,VWS V14.00,2013-03-09 15:20:00,
2013-03-09 09:25:00,35.7,34.7,29.82,SE,132,6.0,12.0,96,0.06,,---,0.32,VWS V14.00,2013-03-09 15:25:00,
2013-03-09 09:30:00,35.7,34.7,29.82,South,180,6.0,9.0,96,0.06,,---,0.32,VWS V14.00,2013-03-09 15:30:00,
2013-03-09 09:35:00,35.7,34.7,29.82,SE,142,7.0,9.0,96,0.06,,---,0.32,VWS V14.00,2013-03-09 15:35:00,
2013-03-09 09:40:00,35.7,34.7,29.82,South,181,2.0,9.0,96,0.04,,---,0.32,VWS V14.00,2013-03-09 15:40:00,
2013-03-09 09:45:00,35.7,34.7,29.82,SE,136,7.0,9.0,96,0.00,,---,0.32,VWS V14.00,2013-03-09 15:45:00,
2013-03-09 09:50:00,35.6,34.6,29.82,SSE,153,6.0,12.0,96,0.00,,---,0.32,VWS V14.00,2013-03-09 15:50:00,
2013-03-09 09:55:00,35.7,34.7,29.82,SE,141,4.0,12.0,96,0.00,,---,0.32,VWS V14.00,2013-03-09 15:55:00,
2013-03-09 10:00:00,35.6,34.6,29.81,SE,145,7.0,12.0,96,0.00,,---,0.32,VWS V14.00,2013-03-09 16:00:00,
2013-03-09 10:05:00,35.6,34.6,29.81,SE,139,4.0,12.0,96,0.00,,---,0.32,VWS V14.00,2013-03-09 16:05:00,
2013-03-09 10:10:00,35.6,34.6,29.81,SE,144,5.0,12.0,96,0.00,,---,0.32,VWS V14.00,2013-03-09 16:10:00,
2013-03-09 10:15:00,35.6,34.6,29.81,SSE,157,7.0,12.0,96,0.00,,---,0.32,VWS V14.00,2013-03-09 16:15:00,
2013-03-09 10:20:00,35.7,34.7,29.80,SSE,161,5.0,12.0,96,0.00,,---,0.32,VWS V14.00,2013-03-09 16:20:00,
2013-03-09 10:25:00,35.7,34.7,29.80,SSE,156,5.0,12.0,96,0.00,,---,0.32,VWS V14.00,2013-03-09 16:25:00,
2013-03-09 10:30:00,35.7,34.7,29.80,SSE,155,3.0,9.0,96,0.00,,---,0.32,VWS V14.00,2013-03-09 16:30:00,
2013-03-09 10:35:00,35.7,34.7,29.80,SE,142,4.0,9.0,96,0.00,,---,0.32,VWS V14.00,2013-03-09 16:35:00,
2013-03-09 10:40:00,35.7,34.7,29.80,SE,145,8.0,10.0,96,0.00,,---,0.32,VWS V14.00,2013-03-09 16:40:00,
2013-03-09 10:45:00,35.7,34.7,29.80,SSE,155,2.0,10.0,96,0.00,,---,0.32,VWS V14.00,2013-03-09 16:45:00,
2013-03-09 10:50:00,35.8,34.8,29.79,SE,125,9.0,10.0,96,0.00,,---,0.32,VWS V14.00,2013-03-09 16:50:00,
2013-03-09 10:55:00,35.9,34.9,29.79,SE,142,3.0,10.0,96,0.00,,---,0.32,VWS V14.00,2013-03-09 16:55:00,
2013-03-09 11:00:00,35.9,34.9,29.79,SE,140,6.0,7.0,96,0.00,,---,0.33,VWS V14.00,2013-03-09 17:00:00,
2013-03-09 11:05:00,36.0,35.0,29.79,SSE,147,2.0,9.0,96,0.00,,---,0.33,VWS V14.00,2013-03-09 17:05:00,
2013-03-09 11:10:00,36.0,35.0,29.79,SE,134,0.0,9.0,96,0.00,,---,0.33,VWS V14.00,2013-03-09 17:10:00,
2013-03-09 11:15:00,36.1,35.1,29.78,SE,134,0.0,9.0,96,0.00,,---,0.33,VWS V14.00,2013-03-09 17:15:00,
2013-03-09 11:20:00,36.1,35.1,29.78,SE,129,6.0,9.0,96,0.00,,---,0.33,VWS V14.00,2013-03-09 17:20:00,
2013-03-09 11:25:00,36.1,35.3,29.77,ESE,118,5.0,10.0,97,0.00,,---,0.34,VWS V14.00,2013-03-09 17:25:00,
2013-03-09 11:30:00,36.2,35.2,29.77,SE,137,0.0,0.0,96,0.08,,---,0.35,VWS V14.00,2013-03-09 17:30:00,
2013-03-09 11:35:00,36.2,35.2,29.78,SSE,150,7.0,9.0,96,0.08,,---,0.35,VWS V14.00,2013-03-09 17:35:00,
2013-03-09 11:40:00,36.2,35.2,29.77,ESE,119,2.0,9.0,96,0.06,,---,0.35,VWS V14.00,2013-03-09 17:40:00,
2013-03-09 11:45:00,36.2,35.2,29.77,SE,129,0.0,9.0,96,0.05,,---,0.36,VWS V14.00,2013-03-09 17:45:00,
2013-03-09 11:50:00,36.3,35.3,29.77,SE,144,0.0,9.0,96,0.10,,---,0.37,VWS V14.00,2013-03-09 17:50:00,
2013-03-09 11:55:00,36.3,35.3,29.77,ESE,123,0.0,9.0,96,0.09,,---,0.37,VWS V14.00,2013-03-09 17:55:00,
2013-03-09 12:00:00,36.4,35.4,29.77,SE,124,0.0,0.0,96,0.06,,---,0.38,VWS V14.00,2013-03-09 18:00:00,
2013-03-09 12:05:00,36.5,35.7,29.77,SE,124,0.0,0.0,97,0.12,,---,0.39,VWS V14.00,2013-03-09 18:05:00,
2013-03-09 12:10:00,36.6,35.8,29.77,SE,130,0.0,0.0,97,0.09,,---,0.39,VWS V14.00,2013-03-09 18:10:00,
2013-03-09 12:15:00,36.6,35.8,29.77,SSE,159,6.0,8.0,97,0.05,,---,0.40,VWS V14.00,2013-03-09 18:15:00,
2013-03-09 12:20:00,36.5,35.5,29.77,SSE,150,0.0,8.0,96,0.05,,---,0.40,VWS V14.00,2013-03-09 18:20:00,
2013-03-09 12:25:00,36.4,35.4,29.76,SE,136,0.0,8.0,96,0.09,,---,0.41,VWS V14.00,2013-03-09 18:25:00,
2013-03-09 12:30:00,36.4,35.4,29.77,SSE,150,0.0,1.0,96,0.06,,---,0.41,VWS V14.00,2013-03-09 18:30:00,
2013-03-09 12:35:00,36.4,35.4,29.76,SE,134,2.0,6.0,96,0.04,,---,0.42,VWS V14.00,2013-03-09 18:35:00,
2013-03-09 12:40:00,36.4,35.6,29.75,ESE,118,1.0,6.0,97,0.04,,---,0.42,VWS V14.00,2013-03-09 18:40:00,
2013-03-09 12:45:00,36.5,35.7,29.75,SE,146,5.0,6.0,97,0.09,,---,0.43,VWS V14.00,2013-03-09 18:45:00,
2013-03-09 12:50:00,36.6,35.8,29.75,SE,140,0.0,6.0,97,0.07,,---,0.43,VWS V14.00,2013-03-09 18:50:00,
2013-03-09 12:55:00,36.7,35.9,29.75,ESE,119,0.0,6.0,97,0.05,,---,0.44,VWS V14.00,2013-03-09 18:55:00,
2013-03-09 13:00:00,36.7,35.9,29.75,SE,138,3.0,7.0,97,0.09,,---,0.45,VWS V14.00,2013-03-09 19:00:00,
2013-03-09 13:05:00,36.7,35.7,29.74,SE,138,0.0,7.0,96,0.09,,---,0.45,VWS V14.00,2013-03-09 19:05:00,
2013-03-09 13:10:00,36.8,36.0,29.74,SSE,165,1.0,7.0,97,0.06,,---,0.45,VWS V14.00,2013-03-09 19:10:00,
2013-03-09 13:15:00,36.8,36.0,29.74,SE,146,0.0,7.0,97,0.04,,---,0.45,VWS V14.00,2013-03-09 19:15:00,
2013-03-09 13:20:00,36.9,35.9,29.73,ESE,121,0.0,7.0,96,0.00,,---,0.45,VWS V14.00,2013-03-09 19:20:00,
2013-03-09 13:25:00,36.9,36.1,29.73,SE,125,0.0,7.0,97,0.00,,---,0.45,VWS V14.00,2013-03-09 19:25:00,
2013-03-09 13:30:00,37.0,36.2,29.72,SE,136,0.0,7.0,97,0.00,,---,0.45,VWS V14.00,2013-03-09 19:30:00,
2013-03-09 13:35:00,37.0,36.2,29.72,SE,130,0.0,7.0,97,0.00,,---,0.45,VWS V14.00,2013-03-09 19:35:00,
2013-03-09 13:40:00,37.0,36.0,29.72,SE,130,0.0,7.0,96,0.00,,---,0.45,VWS V14.00,2013-03-09 19:40:00,
2013-03-09 13:45:00,37.1,36.3,29.72,SE,137,0.0,7.0,97,0.00,,---,0.45,VWS V14.00,2013-03-09 19:45:00,
2013-03-09 13:50:00,37.2,36.4,29.71,SE,136,0.0,7.0,97,0.00,,---,0.45,VWS V14.00,2013-03-09 19:50:00,
2013-03-09 13:55:00,37.2,36.4,29.71,SE,132,0.0,7.0,97,0.00,,---,0.45,VWS V14.00,2013-03-09 19:55:00,
2013-03-09 14:00:00,37.2,36.4,29.70,ESE,121,0.0,3.0,97,0.00,,---,0.45,VWS V14.00,2013-03-09 20:00:00,
2013-03-09 14:05:00,37.2,36.4,29.70,SE,132,0.0,5.0,97,0.00,,---,0.45,VWS V14.00,2013-03-09 20:05:00,
2013-03-09 14:10:00,37.2,36.4,29.70,SE,131,0.0,7.0,97,0.00,,---,0.45,VWS V14.00,2013-03-09 20:10:00,
2013-03-09 14:15:00,37.3,36.5,29.70,SE,126,0.0,7.0,97,0.00,,---,0.45,VWS V14.00,2013-03-09 20:15:00,
2013-03-09 14:20:00,37.3,36.3,29.70,ESE,123,1.0,7.0,96,0.00,,---,0.45,VWS V14.00,2013-03-09 20:20:00,
2013-03-09 14:25:00,37.3,36.3,29.70,SE,127,0.0,7.0,96,0.00,,---,0.45,VWS V14.00,2013-03-09 20:25:00,
2013-03-09 14:30:00,37.2,36.2,29.69,SE,127,0.0,0.0,96,0.00,,---,0.45,VWS V14.00,2013-03-09 20:30:00,
2013-03-09 14:35:00,37.2,36.2,29.69,East,95,0.0,5.0,96,0.00,,---,0.45,VWS V14.00,2013-03-09 20:35:00,
2013-03-09 14:40:00,37.1,36.1,29.69,East,94,0.0,5.0,96,0.00,,---,0.45,VWS V14.00,2013-03-09 20:40:00,
2013-03-09 14:45:00,37.2,36.2,29.69,East,99,0.0,5.0,96,0.00,,---,0.45,VWS V14.00,2013-03-09 20:45:00,
2013-03-09 14:50:00,37.2,36.2,29.70,SSE,155,0.0,5.0,96,0.00,,---,0.45,VWS V14.00,2013-03-09 20:50:00,
2013-03-09 14:55:00,37.2,36.2,29.70,SSE,149,5.0,5.0,96,0.00,,---,0.45,VWS V14.00,2013-03-09 20:55:00,
2013-03-09 15:00:00,37.1,36.1,29.70,SSE,148,0.0,0.0,96,0.00,,---,0.45,VWS V14.00,2013-03-09 21:00:00,
2013-03-09 15:05:00,37.1,36.1,29.70,SSE,148,0.0,3.0,96,0.00,,---,0.45,VWS V14.00,2013-03-09 21:05:00,
2013-03-09 15:10:00,37.1,36.1,29.70,SSE,148,0.0,3.0,96,0.00,,---,0.45,VWS V14.00,2013-03-09 21:10:00,
2013-03-09 15:15:00,37.1,36.1,29.70,SSE,148,0.0,3.0,96,0.00,,---,0.45,VWS V14.00,2013-03-09 21:15:00,
2013-03-09 15:20:00,37.0,36.0,29.70,SE,139,0.0,3.0,96,0.00,,---,0.45,VWS V14.00,2013-03-09 21:20:00,
2013-03-09 15:25:00,37.0,36.0,29.70,SE,139,0.0,3.0,96,0.00,,---,0.45,VWS V14.00,2013-03-09 21:25:00,
2013-03-09 15:30:00,37.0,36.0,29.70,SE,139,0.0,5.0,96,0.00,,---,0.45,VWS V14.00,2013-03-09 21:30:00,
2013-03-09 15:35:00,37.0,36.0,29.70,SE,139,0.0,5.0,96,0.00,,---,0.45,VWS V14.00,2013-03-09 21:35:00,
2013-03-09 15:40:00,37.0,36.2,29.68,SE,136,0.0,5.0,97,0.00,,---,0.46,VWS V14.00,2013-03-09 21:40:00,
2013-03-09 15:45:00,37.0,36.0,29.68,East,101,0.0,5.0,96,0.00,,---,0.46,VWS V14.00,2013-03-09 21:45:00,
2013-03-09 15:50:00,37.0,36.0,29.68,ESE,117,0.0,5.0,96,0.00,,---,0.46,VWS V14.00,2013-03-09 21:50:00,
2013-03-09 15:55:00,37.0,36.2,29.68,ESE,115,0.0,5.0,97,0.00,,---,0.46,VWS V14.00,2013-03-09 21:55:00,
2013-03-09 16:00:00,37.0,36.2,29.68,ESE,115,0.0,0.0,97,0.00,,---,0.46,VWS V14.00,2013-03-09 22:00:00,
2013-03-09 16:05:00,37.1,36.3,29.69,ESE,115,0.0,0.0,97,0.00,,---,0.46,VWS V14.00,2013-03-09 22:05:00,
2013-03-09 16:10:00,37.0,36.2,29.69,SE,130,0.0,3.0,97,0.00,,---,0.46,VWS V14.00,2013-03-09 22:10:00,
2013-03-09 16:15:00,37.0,36.2,29.69,SE,130,0.0,3.0,97,0.00,,---,0.46,VWS V14.00,2013-03-09 22:15:00,
2013-03-09 16:20:00,37.0,36.2,29.69,SE,141,0.0,5.0,97,0.00,,---,0.46,VWS V14.00,2013-03-09 22:20:00,
2013-03-09 16:25:00,37.0,36.2,29.68,SE,141,0.0,5.0,97,0.00,,---,0.46,VWS V14.00,2013-03-09 22:25:00,
2013-03-09 16:30:00,37.0,36.2,29.69,ESE,109,0.0,3.0,97,0.00,,---,0.46,VWS V14.00,2013-03-09 22:30:00,
2013-03-09 16:35:00,37.0,36.2,29.69,ESE,109,0.0,3.0,97,0.00,,---,0.46,VWS V14.00,2013-03-09 22:35:00,
2013-03-09 16:40:00,37.0,36.2,29.69,ESE,109,0.0,3.0,97,0.00,,---,0.46,VWS V14.00,2013-03-09 22:40:00,
2013-03-09 16:45:00,37.0,36.2,29.69,ESE,109,0.0,3.0,97,0.00,,---,0.46,VWS V14.00,2013-03-09 22:45:00,
2013-03-09 16:50:00,36.9,36.1,29.69,ESE,109,0.0,3.0,97,0.00,,---,0.46,VWS V14.00,2013-03-09 22:50:00,
2013-03-09 16:55:00,36.9,36.1,29.69,ESE,109,0.0,3.0,97,0.00,,---,0.46,VWS V14.00,2013-03-09 22:55:00,
2013-03-09 17:00:00,36.9,35.9,29.69,ESE,109,0.0,0.0,96,0.00,,---,0.46,VWS V14.00,2013-03-09 23:00:00,
2013-03-09 17:05:00,36.8,35.8,29.70,ESE,109,0.0,0.0,96,0.00,,---,0.46,VWS V14.00,2013-03-09 23:05:00,
2013-03-09 17:10:00,36.8,35.8,29.70,ESE,109,0.0,0.0,96,0.00,,---,0.46,VWS V14.00,2013-03-09 23:10:00,
2013-03-09 17:15:00,36.8,35.8,29.70,ESE,109,0.0,0.0,96,0.00,,---,0.46,VWS V14.00,2013-03-09 23:15:00,
2013-03-09 17:20:00,36.7,35.7,29.70,ESE,109,0.0,0.0,96,0.00,,---,0.46,VWS V14.00,2013-03-09 23:20:00,
2013-03-09 17:25:00,36.7,35.7,29.70,ESE,109,0.0,0.0,96,0.00,,---,0.47,VWS V14.00,2013-03-09 23:25:00,
2013-03-09 17:30:00,36.7,35.7,29.70,ESE,109,0.0,0.0,96,0.00,,---,0.47,VWS V14.00,2013-03-09 23:30:00,
2013-03-09 17:35:00,36.7,35.7,29.70,ESE,109,0.0,0.0,96,0.00,,---,0.47,VWS V14.00,2013-03-09 23:35:00,
2013-03-09 17:40:00,36.5,35.5,29.70,ESE,109,0.0,0.0,96,0.00,,---,0.47,VWS V14.00,2013-03-09 23:40:00,
2013-03-09 17:45:00,36.4,35.4,29.70,ESE,109,0.0,0.0,96,0.00,,---,0.47,VWS V14.00,2013-03-09 23:45:00,
2013-03-09 17:50:00,36.3,35.5,29.70,ESE,109,0.0,0.0,97,0.00,,---,0.47,VWS V14.00,2013-03-09 23:50:00,
2013-03-09 17:55:00,36.1,35.1,29.70,ESE,109,0.0,0.0,96,0.00,,---,0.47,VWS V14.00,2013-03-09 23:55:00,
2013-03-09 18:00:00,35.9,34.9,29.70,ESE,109,0.0,0.0,96,0.00,,---,0.47,VWS V14.00,2013-03-10 00:00:00,
2013-03-09 18:05:00,35.7,34.7,29.70,ESE,109,0.0,0.0,96,0.00,,---,0.47,VWS V14.00,2013-03-10 00:05:00,
2013-03-09 18:10:00,35.6,34.6,29.70,ESE,109,0.0,0.0,96,0.00,,---,0.47,VWS V14.00,2013-03-10 00:10:00,
2013-03-09 18:15:00,35.7,34.9,29.70,ESE,109,0.0,0.0,97,0.00,,---,0.47,VWS V14.00,2013-03-10 00:15:00,
2013-03-09 18:20:00,35.4,34.4,29.70,ESE,109,0.0,0.0,96,0.00,,---,0.47,VWS V14.00,2013-03-10 00:20:00,
2013-03-09 18:25:00,35.1,34.1,29.71,ESE,109,0.0,0.0,96,0.00,,---,0.47,VWS V14.00,2013-03-10 00:25:00,
2013-03-09 18:30:00,35.1,34.1,29.72,ESE,109,0.0,0.0,96,0.00,,---,0.47,VWS V14.00,2013-03-10 00:30:00,
2013-03-09 18:35:00,35.1,34.3,29.72,ESE,109,0.0,0.0,97,0.00,,---,0.47,VWS V14.00,2013-03-10 00:35:00,
2013-03-09 18:40:00,35.2,34.4,29.72,ESE,109,0.0,0.0,97,0.00,,---,0.47,VWS V14.00,2013-03-10 00:40:00,
2013-03-09 18:45:00,35.3,34.5,29.72,ESE,109,0.0,0.0,97,0.00,,---,0.47,VWS V14.00,2013-03-10 00:45:00,
2013-03-09 18:50:00,35.3,34.5,29.72,ESE,109,0.0,1.0,97,0.00,,---,0.47,VWS V14.00,2013-03-10 00:50:00,
2013-03-09 18:55:00,35.1,34.1,29.72,North,5,0.0,1.0,96,0.00,,---,0.47,VWS V14.00,2013-03-10 00:55:00,
2013-03-09 19:00:00,35.2,34.4,29.71,North,5,4.0,5.0,97,0.00,,---,0.47,VWS V14.00,2013-03-10 01:00:00,
2013-03-09 19:05:00,35.3,34.5,29.71,North,5,0.0,5.0,97,0.00,,---,0.47,VWS V14.00,2013-03-10 01:05:00,
2013-03-09 19:10:00,35.4,34.6,29.72,North,5,0.0,5.0,97,0.00,,---,0.47,VWS V14.00,2013-03-10 01:10:00,
2013-03-09 19:15:00,35.4,34.6,29.72,North,5,0.0,5.0,97,0.00,,---,0.47,VWS V14.00,2013-03-10 01:15:00,
2013-03-09 19:20:00,35.3,34.5,29.72,North,5,0.0,5.0,97,0.00,,---,0.47,VWS V14.00,2013-03-10 01:20:00,
2013-03-09 19:25:00,35.1,34.1,29.72,North,5,0.0,5.0,96,0.00,,---,0.47,VWS V14.00,2013-03-10 01:25:00,
2013-03-09 19:30:00,35.2,34.4,29.72,North,5,0.0,0.0,97,0.00,,---,0.47,VWS V14.00,2013-03-10 01:30:00,
2013-03-09 19:35:00,35.2,34.4,29.73,North,5,0.0,0.0,97,0.00,,---,0.47,VWS V14.00,2013-03-10 01:35:00,
2013-03-09 19:40:00,35.4,34.6,29.73,North,5,0.0,0.0,97,0.00,,---,0.47,VWS V14.00,2013-03-10 01:40:00,
2013-03-09 19:45:00,35.5,34.7,29.73,North,5,0.0,0.0,97,0.00,,---,0.47,VWS V14.00,2013-03-10 01:45:00,
2013-03-09 19:50:00,35.5,34.7,29.74,North,5,0.0,0.0,97,0.00,,---,0.47,VWS V14.00,2013-03-10 01:50:00,
2013-03-09 19:55:00,35.5,34.7,29.74,North,5,0.0,0.0,97,0.00,,---,0.47,VWS V14.00,2013-03-10 01:55:00,
2013-03-09 20:00:00,35.4,34.6,29.74,North,5,0.0,0.0,97,0.00,,---,0.47,VWS V14.00,2013-03-10 02:00:00,
2013-03-09 20:05:00,35.1,34.3,29.74,North,5,0.0,0.0,97,0.00,,---,0.47,VWS V14.00,2013-03-10 02:05:00,
2013-03-09 20:10:00,35.2,34.4,29.73,North,5,2.0,4.0,97,0.00,,---,0.47,VWS V14.00,2013-03-10 02:10:00,
2013-03-09 20:15:00,35.3,34.5,29.73,North,5,3.0,5.0,97,0.00,,---,0.48,VWS V14.00,2013-03-10 02:15:00,
2013-03-09 20:20:00,35.5,34.7,29.74,North,10,4.0,6.0,97,0.00,,---,0.48,VWS V14.00,2013-03-10 02:20:00,
2013-03-09 20:25:00,35.5,34.7,29.74,NNE,12,4.0,6.0,97,0.00,,---,0.48,VWS V14.00,2013-03-10 02:25:00,
2013-03-09 20:30:00,35.5,34.7,29.74,North,11,0.0,0.0,97,0.00,,---,0.48,VWS V14.00,2013-03-10 02:30:00,
2013-03-09 20:35:00,35.5,34.7,29.74,NNE,12,0.0,0.0,97,0.00,,---,0.48,VWS V14.00,2013-03-10 02:35:00,
2013-03-09 20:40:00,35.4,34.6,29.75,NNE,13,0.0,0.0,97,0.00,,---,0.48,VWS V14.00,2013-03-10 02:40:00,
2013-03-09 20:45:00,35.3,34.5,29.75,NNE,13,0.0,0.0,97,0.00,,---,0.48,VWS V14.00,2013-03-10 02:45:00,
2013-03-09 20:50:00,35.3,34.5,29.75,NNE,13,0.0,0.0,97,0.00,,---,0.48,VWS V14.00,2013-03-10 02:50:00,
2013-03-09 20:55:00,35.2,34.4,29.75,NNE,13,0.0,0.0,97,0.00,,---,0.48,VWS V14.00,2013-03-10 02:55:00,
2013-03-09 21:00:00,35.2,34.4,29.75,NNE,17,6.0,6.0,97,0.00,,---,0.48,VWS V14.00,2013-03-10 03:00:00,
2013-03-09 21:05:00,35.2,34.4,29.76,North,355,6.0,9.0,97,0.00,,---,0.48,VWS V14.00,2013-03-10 03:05:00,
2013-03-09 21:10:00,35.2,34.4,29.75,North,360,5.0,9.0,97,0.00,,---,0.48,VWS V14.00,2013-03-10 03:10:00,
2013-03-09 21:15:00,35.1,34.3,29.76,North,355,5.0,9.0,97,0.00,,---,0.48,VWS V14.00,2013-03-10 03:15:00,
2013-03-09 21:20:00,35.1,34.3,29.76,NNW,345,6.0,9.0,97,0.00,,---,0.48,VWS V14.00,2013-03-10 03:20:00,
2013-03-09 21:25:00,34.9,34.1,29.77,NNW,347,9.0,11.0,97,0.00,,---,0.48,VWS V14.00,2013-03-10 03:25:00,
2013-03-09 21:30:00,34.7,33.9,29.77,NNW,346,9.0,11.0,97,0.00,,---,0.48,VWS V14.00,2013-03-10 03:30:00,
2013-03-09 21:35:00,34.6,33.8,29.77,NNW,346,10.0,11.0,97,0.00,,---,0.48,VWS V14.00,2013-03-10 03:35:00,
2013-03-09 21:40:00,34.5,33.7,29.77,NNW,344,9.0,11.0,97,0.00,,---,0.48,VWS V14.00,2013-03-10 03:40:00,
2013-03-09 21:45:00,34.4,33.6,29.78,NNW,337,6.0,11.0,97,0.00,,---,0.48,VWS V14.00,2013-03-10 03:45:00,
2013-03-09 21:50:00,34.4,33.6,29.78,NNW,338,7.0,11.0,97,0.00,,---,0.48,VWS V14.00,2013-03-10 03:50:00,
2013-03-09 21:55:00,34.3,33.5,29.78,NNW,342,10.0,11.0,97,0.00,,---,0.48,VWS V14.00,2013-03-10 03:55:00,
2013-03-09 22:00:00,34.4,33.6,29.77,North,360,6.0,11.0,97,0.00,,---,0.48,VWS V14.00,2013-03-10 04:00:00,
2013-03-09 22:05:00,34.4,33.6,29.77,North,11,6.0,11.0,97,0.00,,---,0.48,VWS V14.00,2013-03-10 04:05:00,
2013-03-09 22:10:00,34.4,33.6,29.78,North,355,7.0,12.0,97,0.00,,---,0.48,VWS V14.00,2013-03-10 04:10:00,
2013-03-09 22:15:00,34.4,33.6,29.78,North,360,8.0,12.0,97,0.00,,---,0.48,VWS V14.00,2013-03-10 04:15:00,
2013-03-09 22:20:00,34.5,33.7,29.78,North,360,10.0,12.0,97,0.00,,---,0.48,VWS V14.00,2013-03-10 04:20:00,
2013-03-09 22:25:00,34.5,33.7,29.79,NNW,347,5.0,12.0,97,0.00,,---,0.48,VWS V14.00,2013-03-10 04:25:00,
2013-03-09 22:30:00,34.5,33.7,29.79,NNW,347,4.0,9.0,97,0.00,,---,0.48,VWS V14.00,2013-03-10 04:30:00,
2013-03-09 22:35:00,34.5,33.7,29.80,North,355,9.0,12.0,97,0.00,,---,0.48,VWS V14.00,2013-03-10 04:35:00,
2013-03-09 22:40:00,34.5,33.7,29.80,North,360,10.0,13.0,97,0.00,,---,0.48,VWS V14.00,2013-03-10 04:40:00,
2013-03-09 22:45:00,34.5,33.7,29.81,North,355,6.0,13.0,97,0.00,,---,0.48,VWS V14.00,2013-03-10 04:45:00,
2013-03-09 22:49:00,34.6,33.8,29.81,North,5,7.0,13.0,97,0.00,,---,0.48,VWS V14.00,2013-03-10 04:49:00,
2013-03-09 22:54:00,34.6,33.8,29.81,NNW,337,8.0,13.0,97,0.00,,---,0.48,VWS V14.00,2013-03-10 04:54:00,
2013-03-09 22:59:00,34.7,33.9,29.81,North,355,6.0,10.0,97,0.00,,---,0.48,VWS V14.00,2013-03-10 04:59:00,
2013-03-09 23:00:00,34.7,33.9,29.81,North,355,7.0,10.0,97,0.00,,---,0.48,VWS V14.00,2013-03-10 05:00:00,
2013-03-09 23:05:00,34.7,33.9,29.81,North,360,5.0,11.0,97,0.00,,---,0.48,VWS V14.00,2013-03-10 05:05:00,
2013-03-09 23:10:00,34.7,33.7,29.81,NNW,348,9.0,12.0,96,0.00,,---,0.48,VWS V14.00,2013-03-10 05:10:00,
2013-03-09 23:15:00,34.7,33.7,29.81,North,355,6.0,12.0,96,0.00,,---,0.48,VWS V14.00,2013-03-10 05:15:00,
2013-03-09 23:20:00,34.7,33.7,29.82,North,355,9.0,12.0,96,0.00,,---,0.48,VWS V14.00,2013-03-10 05:20:00,
2013-03-09 23:25:00,34.7,33.7,29.81,North,5,11.0,12.0,96,0.00,,---,0.48,VWS V14.00,2013-03-10 05:25:00,
2013-03-09 23:30:00,34.7,33.7,29.80,North,350,10.0,16.0,96,0.00,,---,0.48,VWS V14.00,2013-03-10 05:30:00,
2013-03-09 23:35:00,34.8,33.5,29.81,North,355,9.0,16.0,95,0.00,,---,0.48,VWS V14.00,2013-03-10 05:35:00,
2013-03-09 23:40:00,34.8,33.5,29.81,North,350,10.0,16.0,95,0.00,,---,0.48,VWS V14.00,2013-03-10 05:40:00,
2013-03-09 23:45:00,34.7,33.4,29.81,North,355,10.0,16.0,95,0.00,,---,0.48,VWS V14.00,2013-03-10 05:45:00,
2013-03-09 23:50:00,34.8,33.5,29.81,North,5,9.0,16.0,95,0.00,,---,0.48,VWS V14.00,2013-03-10 05:50:00,
2013-03-09 23:55:00,34.8,33.5,29.81,North,5,9.0,16.0,95,0.00,,---,0.48,VWS V14.00,2013-03-10 05:55:00,